Location: Peterborough
(44.3091°N, 78.3197°W)
Time: 23:30:00
(UTC-05:00)

Vanguard 1 Rocket - Pass Details

Date: 18 December 2023
Orbit: 654 x 4218 km, 34.3° (Epoch: 24 February)

Event Time Altitude Azimuth Distance (km) Brightness Sun altitude
Exits shadow 03:26:06 57° 208° (SSW) 4,511 10.4 -45.0°
Maximum altitude 03:30:51 63° 172° (S) 4,202 10.4 -44.2°
Drops below altitude 10° 03:49:36 10° 98° (E) 5,582 12.0 -40.9°
Sets 03:53:03 0° 95° (E) 6,217 12.5 -40.2°
